Stations météo

Publicité
Fichtelberg, Allemagne (10578): Température de l'air & dewpoint: 11.12.2018 13:00:00 - 17.12.2018 13:00:00 (CET)Fichtelberg, Allemagne (10578): Température de l'air 5cm & Température de l'air -5cm: 11.12.2018 13:00:00 - 17.12.2018 13:00:00 (CET)Fichtelberg, Allemagne (10578): Température de l'air -20cm & Température de l'air -100cm: 11.12.2018 13:00:00 - 17.12.2018 13:00:00 (CET)Fichtelberg, Allemagne (10578): Vitesse du vent & gusts: 11.12.2018 13:00:00 - 17.12.2018 13:00:00 (CET)Fichtelberg, Allemagne (10578): Direction du vent: 11.12.2018 13:00:00 - 17.12.2018 13:00:00 (CET)Fichtelberg, Allemagne (10578): visibility: 11.12.2018 13:00:00 - 17.12.2018 13:00:00 (CET)Fichtelberg, Allemagne (10578): Ensoleillement: 11.12.2018 13:00:00 - 17.12.2018 13:00:00 (CET)
Date & Time tt [°C] td [°C] tt 5cm [°C] tt -5cm [°C] tt -20cm [°C] tt -100cm [°C] ff [km/h] ff [knt] fx [km/h] fx [knt] dd vv [km] sd [min]
17.12.2018 13:00:00 - - - - - - - - - - - - -
17.12.2018 12:00:00 -1,3 -1,3 -0,2 0,2 1,0 4,2 33 18 45 24 W 82 19
17.12.2018 11:00:00 -1,6 -1,6 -0,1 0,2 1,0 4,2 37 20 45 24 W 15 23
17.12.2018 10:00:00 -2,5 -2,6 -0,9 0,2 1,0 4,2 33 18 41 22 W 30 4
17.12.2018 09:00:00 -3,2 -3,4 -3,1 0,2 1,0 4,3 29 16 41 22 W 4,0 10
17.12.2018 08:00:00 -3,4 -3,7 -3,7 0,2 1,0 4,3 30 16 40 22 W 2,0 0
17.12.2018 07:00:00 -3,5 -3,8 -3,7 0,2 1,0 4,3 33 18 44 24 W 0,1 0
17.12.2018 06:00:00 -3,6 -3,9 -3,9 0,2 1,0 4,3 36 19 43 23 W 0,1 0
17.12.2018 05:00:00 -3,6 -3,8 -3,7 0,2 1,0 4,3 31 17 42 23 W 0,1 0
17.12.2018 04:00:00 -3,9 -4,1 -3,7 0,2 1,0 4,3 31 17 48 26 W 0,1 0
17.12.2018 03:00:00 -4,4 -4,7 -4,2 0,2 1,0 4,3 31 17 40 22 WSW 0,1 0
17.12.2018 02:00:00 -4,8 -5,1 -4,5 0,2 1,0 4,3 28 15 40 22 W 0,1 0
17.12.2018 01:00:00 -5,2 -5,5 -4,8 0,2 1,0 4,3 32 17 41 22 W 0,1 0
17.12.2018 00:00:00 -5,8 -6,2 -5,3 0,2 1,0 4,3 31 17 45 24 W 0,1 0
16.12.2018 23:00:00 -6,5 -7,0 -6,1 0,2 1,0 4,3 38 20 55 30 W 0,1 0
16.12.2018 22:00:00 -7,1 -7,7 -7,0 0,2 1,0 4,3 40 21 50 27 WSW 0,5 0
16.12.2018 21:00:00 -7,4 -8,2 -7,4 0,2 1,0 4,3 43 23 54 29 SW 1,6 0
16.12.2018 20:00:00 -7,8 -8,6 -7,8 0,2 1,0 4,3 44 24 59 32 SW 0,7 0
16.12.2018 19:00:00 -8,1 -9,1 -8,1 0,2 1,0 4,3 44 24 61 33 SW 0,5 0
16.12.2018 18:00:00 -8,5 -9,6 -8,6 0,2 1,0 4,3 42 23 51 28 S 0,5 0
16.12.2018 17:00:00 -8,2 -9,4 -8,4 0,2 1,0 4,3 33 18 56 30 S 1,0 0
16.12.2018 16:00:00 -7,3 -7,9 -7,1 0,2 1,0 4,3 46 25 60 32 SSW 8 0
16.12.2018 15:00:00 -8,6 -9,8 -8,6 0,2 1,0 4,3 56 31 67 36 SSW 20 0
16.12.2018 14:00:00 -8,3 -9,5 -8,1 0,2 1,0 4,3 54 29 65 35 SSW 40 0
16.12.2018 13:00:00 -8,0 -9,2 -7,7 0,2 1,0 4,3 55 30 63 34 SSW 60 0
16.12.2018 12:00:00 -7,5 -8,4 -6,1 0,2 1,0 4,3 48 26 54 29 S 60 4
16.12.2018 11:00:00 -8,4 -9,3 -7,7 0,2 1,0 4,3 41 22 51 28 S 50 5
16.12.2018 10:00:00 -9,0 -9,8 -8,8 0,2 1,0 4,3 22 12 40 21 ESE 0,4 2
16.12.2018 09:00:00 -9,4 -10,4 -9,4 0,2 1,0 4,3 32 18 50 27 SE 0,3 0
16.12.2018 08:00:00 -9,3 -10,3 -9,5 0,2 1,0 4,3 36 20 48 26 ESE 0,2 0
16.12.2018 07:00:00 -9,4 -10,4 -9,7 0,2 1,0 4,3 36 19 45 24 ESE 0,3 0
16.12.2018 06:00:00 -9,4 -10,5 -10,1 0,2 1,0 4,3 32 17 37 20 SSE 0,5 0
16.12.2018 05:00:00 -9,1 -10,1 -9,7 0,2 1,0 4,3 27 15 42 23 SE 0,6 0
16.12.2018 04:00:00 -9,0 -9,9 -9,2 0,2 1,0 4,3 31 17 44 24 SE 0,4 0
16.12.2018 03:00:00 -9,0 -10,0 -9,2 0,2 1,0 4,3 32 17 49 26 SE 0,3 0
16.12.2018 02:00:00 -9,0 -10,1 -9,1 0,2 1,0 4,3 36 20 46 25 ESE 0,3 0
16.12.2018 01:00:00 -9,0 -10,0 -9,3 0,2 1,0 4,3 28 15 44 24 ESE 0,4 0
16.12.2018 00:00:00 -8,7 -9,8 -9,1 0,2 1,0 4,3 34 18 42 23 ESE 1,0 0
15.12.2018 23:00:00 -8,3 -9,0 -8,9 0,2 1,0 4,3 21 12 34 19 ESE 3,0 0
15.12.2018 22:00:00 -8,1 -8,8 -8,6 0,2 1,0 4,3 21 11 31 17 E 0,5 0
15.12.2018 21:00:00 -7,9 -8,7 -8,4 0,2 1,0 4,3 25 13 32 17 E 0,3 0
15.12.2018 20:00:00 -7,8 -8,5 -8,3 0,2 1,0 4,3 22 12 28 15 E 0,3 0
15.12.2018 19:00:00 -7,7 -8,4 -8,3 0,2 1,0 4,3 15 8 20 11 E 0,1 0
15.12.2018 18:00:00 -7,5 -8,1 -8,4 0,2 1,0 4,3 11 6 17 9 ENE 0,2 0
15.12.2018 17:00:00 -7,2 -7,8 -8,3 0,2 1,0 4,3 9 5 15 8 NE 0,1 0
15.12.2018 16:00:00 -6,8 -7,4 -8,1 0,2 1,0 4,3 10 6 13 7 NNE 0,1 0
15.12.2018 15:00:00 -6,5 -7,0 -7,4 0,2 1,0 4,3 7 4 15 8 E 3,0 0
15.12.2018 14:00:00 -6,7 -7,2 -7,0 0,2 1,0 4,3 12 7 19 10 ESE 0,6 0
15.12.2018 13:00:00 -6,8 -7,3 -6,8 0,2 1,0 4,3 14 8 19 10 E 0,8 0
15.12.2018 12:00:00 -7,4 -8,0 -6,8 0,2 1,0 4,3 12 7 18 10 E 3,2 1
15.12.2018 11:00:00 -7,9 -8,5 -7,8 0,2 1,0 4,3 13 7 18 10 ENE 0,1 0
15.12.2018 10:00:00 -8,2 -8,9 -8,3 0,2 1,0 4,3 11 6 16 8 ENE 0,1 0
15.12.2018 09:00:00 -8,2 -8,9 -8,6 0,2 1,0 4,3 8 4 14 8 NNE 0,1 0
15.12.2018 08:00:00 -8,1 -8,8 -8,8 0,2 1,0 4,3 8 4 16 8 NNE 0,1 0
15.12.2018 07:00:00 -8,0 -8,6 -8,7 0,2 1,0 4,3 8 4 13 7 N 0,1 0
15.12.2018 06:00:00 -8,0 -8,6 -8,5 0,2 1,0 4,3 8 4 17 9 NNE 0,1 0
15.12.2018 05:00:00 -8,0 -8,7 -8,4 0,2 1,0 4,3 11 6 21 11 E 0,1 0
15.12.2018 04:00:00 -8,0 -8,6 -8,2 0,2 1,0 4,3 15 8 25 14 E 0,1 0
15.12.2018 03:00:00 -8,1 -8,8 -8,2 0,2 1,0 4,3 18 10 25 13 ENE 0,2 0
15.12.2018 02:00:00 -8,3 -9,0 -8,4 0,2 1,0 4,3 16 9 30 16 E 0,2 0
15.12.2018 01:00:00 -8,4 -9,1 -8,6 0,2 1,0 4,3 23 12 35 19 E 0,1 0
15.12.2018 00:00:00 -8,3 -9,0 -8,7 0,2 1,0 4,3 25 13 41 22 E 0,1 0
14.12.2018 23:00:00 -8,3 -9,1 -8,5 0,2 1,0 4,3 32 17 49 26 E 0,1 0
14.12.2018 22:00:00 -8,3 -9,2 -8,6 0,2 1,0 4,3 40 22 55 30 E 0,1 0
14.12.2018 21:00:00 -8,2 -9,2 -8,4 0,2 1,0 4,3 44 24 59 32 E 0,1 0
14.12.2018 20:00:00 -8,2 -9,3 -8,3 0,2 1,0 4,3 49 26 61 33 E 0,1 0
14.12.2018 19:00:00 -8,2 -9,1 -8,3 0,2 1,0 4,3 44 24 62 34 E 0,1 0
14.12.2018 18:00:00 -8,2 -9,2 -8,4 0,2 1,0 4,3 49 27 66 36 E 0,1 0
14.12.2018 17:00:00 -8,3 -9,2 -8,4 0,2 1,0 4,3 47 26 61 33 E - 0
14.12.2018 16:00:00 -8,3 -9,3 -8,5 0,2 1,0 4,3 47 25 60 32 E 0,1 0
14.12.2018 15:00:00 -8,1 -9,1 -8,2 0,2 1,0 4,3 46 25 59 32 E - 0
14.12.2018 14:00:00 -8,2 -9,3 -8,3 0,2 1,0 4,3 51 28 63 34 E - 0
14.12.2018 13:00:00 -8,1 -9,1 -8,1 0,2 1,0 4,3 45 25 66 36 E - 0
14.12.2018 12:00:00 -8,3 -9,3 -8,2 0,2 1,0 4,3 44 24 63 34 E - 0
14.12.2018 11:00:00 -8,4 -9,5 -8,5 0,2 1,0 4,3 50 27 63 34 E - 0
14.12.2018 10:00:00 -8,5 -9,5 -8,6 0,2 1,0 4,3 47 26 63 34 E - 0
14.12.2018 09:00:00 -8,6 -9,7 -8,6 0,2 1,0 4,3 49 26 63 34 E 0,1 0
14.12.2018 08:00:00 -8,7 -9,8 -8,9 0,2 1,0 4,3 44 24 59 32 E 0,1 0
14.12.2018 07:00:00 -8,8 -9,9 -8,9 0,2 1,0 4,3 47 25 63 34 E 0,1 0
14.12.2018 06:00:00 -9,0 -10,2 -9,1 0,2 1,0 4,4 43 23 59 32 E 0,1 0
14.12.2018 05:00:00 -9,1 -10,3 -9,3 0,2 1,0 4,4 39 21 56 30 E 0,1 0
14.12.2018 04:00:00 -9,0 -10,3 -9,2 0,2 1,0 4,4 46 25 63 34 E 0,1 0
14.12.2018 03:00:00 -8,5 -9,7 -8,7 0,2 1,0 4,4 42 23 55 30 E 0,2 0
14.12.2018 02:00:00 -8,3 -9,5 -8,5 0,2 1,0 4,4 39 21 53 29 E 0,2 0
14.12.2018 01:00:00 -8,4 -9,6 -8,6 0,2 1,0 4,4 36 19 55 30 E 0,2 0
14.12.2018 00:00:00 -8,2 -9,4 -8,4 0,2 1,0 4,4 37 20 53 29 E 0,2 0
13.12.2018 23:00:00 -8,1 -9,3 -8,4 0,2 1,0 4,4 36 19 50 27 E 0,3 0
13.12.2018 22:00:00 -8,1 -9,2 -8,2 0,2 1,0 4,4 34 18 50 27 E 0,2 0
13.12.2018 21:00:00 -8,1 -9,2 -8,2 0,2 1,0 4,4 36 19 54 29 E 0,2 0
13.12.2018 20:00:00 -8,3 -9,5 -8,5 0,2 1,0 4,4 41 22 54 29 E 0,2 0
13.12.2018 19:00:00 -8,1 -9,3 -8,3 0,2 1,0 4,4 40 22 55 30 E 0,3 0
13.12.2018 18:00:00 -8,2 -9,4 -8,3 0,2 1,0 4,4 46 25 58 31 E 0,1 0
13.12.2018 17:00:00 -8,2 -9,4 -8,3 0,2 1,0 4,4 40 21 56 30 E 0,1 0
13.12.2018 16:00:00 -8,1 -9,2 -8,2 0,2 1,0 4,4 40 21 50 27 E 0,1 0
13.12.2018 15:00:00 -8,1 -9,3 -8,1 0,2 1,0 4,4 42 23 53 29 E 0,1 0
13.12.2018 14:00:00 -7,9 -9,1 -7,8 0,2 1,0 4,4 37 20 48 26 E 0,1 0
13.12.2018 13:00:00 -8,0 -9,2 -7,8 0,2 1,0 4,4 40 22 51 28 E 0,1 0
13.12.2018 12:00:00 -8,0 -9,2 -7,9 0,2 1,0 4,4 35 19 48 26 E 0,1 0
13.12.2018 11:00:00 -8,1 -9,3 -8,1 0,2 1,0 4,4 36 19 44 24 E 0,1 0
13.12.2018 10:00:00 -8,1 -9,2 -8,1 0,2 1,0 4,4 27 15 36 20 E 0,1 0
13.12.2018 09:00:00 -8,1 -9,2 -8,1 0,2 1,0 4,4 27 14 40 21 E 0,1 0
13.12.2018 08:00:00 -8,2 -9,3 -8,4 0,2 1,0 4,4 29 15 34 19 E 0,1 0
13.12.2018 07:00:00 -8,2 -9,3 -8,4 0,2 1,0 4,4 23 12 34 18 E 0,1 0
13.12.2018 06:00:00 -8,0 -9,1 -8,7 0,2 1,0 4,4 24 13 32 18 E 0,1 0
13.12.2018 05:00:00 -7,7 -8,8 -8,0 0,2 1,0 4,4 26 14 34 19 E 0,1 0
13.12.2018 04:00:00 -7,5 -8,6 -7,7 0,2 1,0 4,4 25 14 31 17 E 0,1 0
13.12.2018 03:00:00 -7,3 -8,3 -7,5 0,2 1,0 4,4 22 12 33 18 E 0,1 0
13.12.2018 02:00:00 -7,1 -8,0 -7,4 0,2 1,0 4,4 20 11 32 17 E 0,1 0
13.12.2018 01:00:00 -7,1 -8,1 -7,3 0,2 1,0 4,4 22 12 35 19 E - 0
13.12.2018 00:00:00 -6,9 -7,8 -7,1 0,2 1,0 4,4 23 12 29 16 ENE 0,1 0
12.12.2018 23:00:00 -6,7 -7,5 -7,1 0,2 1,0 4,4 22 12 29 16 ENE 0,1 0
12.12.2018 22:00:00 -6,6 -7,6 -6,8 0,2 1,0 4,4 19 11 33 18 ENE 0,1 0
12.12.2018 21:00:00 -6,3 -7,2 -6,6 0,2 1,0 4,4 16 9 30 16 ENE 0,1 0
12.12.2018 20:00:00 -6,4 -7,2 -6,6 0,2 1,0 4,4 18 10 27 15 NNE 0,1 0
12.12.2018 19:00:00 -6,2 -7,1 -6,5 0,2 1,0 4,4 18 10 33 18 NNE 0,4 0
12.12.2018 18:00:00 -5,8 -6,7 -6,0 0,2 1,0 4,4 20 11 35 19 NE 0,1 0
12.12.2018 17:00:00 -5,7 -6,5 -5,9 0,2 1,0 4,4 18 10 27 15 NNE 0,1 0
12.12.2018 16:00:00 -5,7 -6,5 -6,0 0,2 1,0 4,4 16 9 34 18 N 0,3 0
12.12.2018 15:00:00 -5,3 -6,2 -5,6 0,2 1,0 4,4 28 15 38 20 NNW 0,1 0
12.12.2018 14:00:00 -5,1 -6,0 -5,5 0,2 1,0 4,4 30 16 44 24 NNW 0,2 0
12.12.2018 13:00:00 -4,6 -5,6 -4,9 0,2 1,0 4,4 35 19 46 25 NNW 0,1 0
12.12.2018 12:00:00 -4,6 -5,5 -4,6 0,2 1,0 4,4 29 16 42 23 NW 0,1 0
12.12.2018 11:00:00 -4,6 -5,5 -3,7 0,2 1,0 4,4 29 15 40 21 NW 0,2 0
12.12.2018 10:00:00 -4,7 -5,5 -3,8 0,2 1,0 4,4 23 12 39 21 WNW 0,1 0
12.12.2018 09:00:00 -4,9 -5,7 -3,8 0,2 1,0 4,4 26 14 38 21 WNW 0,1 0
12.12.2018 08:00:00 -5,0 -5,8 -3,8 0,2 1,0 4,4 31 17 41 22 WNW 0,1 0
12.12.2018 07:00:00 -5,2 -6,1 -3,8 0,2 1,0 4,4 34 19 42 23 WNW 0,1 0
12.12.2018 06:00:00 -5,2 -6,1 -3,8 0,2 1,0 4,4 32 17 49 27 NW 0,1 0
12.12.2018 05:00:00 -4,9 -5,9 -3,8 0,2 1,0 4,4 40 21 50 27 NW 0,1 0
12.12.2018 04:00:00 -4,6 -5,5 -3,8 0,2 1,0 4,4 28 15 39 21 NW 0,2 0
12.12.2018 03:00:00 -4,6 -5,5 -3,8 0,2 1,0 4,4 28 15 50 27 NNW 0,2 0
12.12.2018 02:00:00 -4,3 -5,2 -3,8 0,2 1,0 4,4 30 16 55 30 NW 0,3 0
12.12.2018 01:00:00 -4,3 -5,1 -3,9 0,2 1,0 4,4 39 21 51 27 WNW 0,1 0
12.12.2018 00:00:00 -4,2 -5,0 -3,9 0,2 1,0 4,4 37 20 54 29 WNW 0,1 0
11.12.2018 23:00:00 -4,2 -5,0 -3,9 0,1 1,0 4,4 39 21 61 33 WNW 0,1 0
11.12.2018 22:00:00 -4,0 -4,7 -3,9 0,1 1,0 4,4 39 21 61 33 WNW 0,1 0
11.12.2018 21:00:00 -4,0 -4,8 -3,9 0,1 0,9 4,4 50 27 70 38 WNW 0,1 0
11.12.2018 20:00:00 -4,0 -4,7 -3,9 0,1 0,9 4,4 48 26 70 38 WNW 0,2 0
11.12.2018 19:00:00 -4,0 -4,8 -3,9 0,1 0,9 4,4 52 28 67 36 WNW 0,1 0
11.12.2018 18:00:00 -3,8 -4,5 -3,9 0,1 0,9 4,4 42 23 66 36 WNW 0,2 0
11.12.2018 17:00:00 -3,8 -4,5 -4,0 0,1 0,9 4,4 46 25 70 38 W 0,1 0
11.12.2018 16:00:00 -3,9 -4,6 -4,0 0,1 0,9 4,4 50 27 74 40 W 0,1 0
11.12.2018 15:00:00 -3,9 -4,6 -4,0 0,1 0,9 4,4 54 29 72 39 W 0,1 0
11.12.2018 14:00:00 -3,9 -4,6 -3,9 0,1 0,9 4,4 51 28 77 42 W 0,1 0
11.12.2018 13:00:00 -4,0 -4,8 -3,8 0,0 0,9 4,4 59 32 82 45 W 0,1 0

tt = Température de l'air
td = dewpoint
tt 5cm = Température de l'air 5cm
tt -5cm = Température de l'air -5cm
tt -20cm = Température de l'air -20cm
tt -100cm = Température de l'air -100cm
ff = Vitesse du vent
fx = gusts
dd = Direction du vent
vv = visibility
sd = Ensoleillement

stations d'obs. à proximité